GFSNIL_con_mlcape_000.txt.gz
CAPE
0 0 13 163 48 0 35 17 55 45 110 134 258 354 497 492 519 362 164 52 28 125
0 0 14 361 199 100 65 61 73 95 28 235 297 151 380 486 472 307 64 78 60 51
0 0 2 77 40 72 72 17 1 34 224 202 286 401 405 361 411 225 125 40 48 1
0 0 0 0 20 32 2 16 29 11 6 17 82 85 485 315 116 94 23 29 5 4
0 0 0 0 11 40 93 53 29 19 10 0 0 10 254 339 275 206 124 111 35 0
0 0 0 0 0 0 9 68 103 13 17 3 17 20 33 239 230 275 254 220 181 74
0 0 0 0 0 0 0 1 20 17 35 63 10 1 24 276 258 218 193 154 89 75
0 0 0 0 0 0 0 0 0 0 0 0 0 0 0 0 0 2 2 7 3 5
0 0 0 0 0 0 0 0 0 0 0 0 0 0 0 0 0 0 0 0 0 0
0 0 0 0 0 0 0 0 0 0 0 0 0 0 0 0 0 0 0 0 0 0
0 0 0 0 0 0 0 0 0 0 0 0 0 0 0 0 0 0 0 0 0 0
0 0 0 0 0 0 0 0 0 0 0 0 0 0 0 0 0 0 0 0 0 0
0 0 0 0 0 0 0 0 0 0 0 0 0 0 0 0 0 0 0 0 0 0
0 0 0 0 0 0 0 0 0 0 0 0 0 0 0 0 0 0 0 0 0 0

GFSNIL_con_mlcape_003.txt.gz
CAPE
1 123 213 2 0 4 30 87 180 179 258 372 428 469 611 633 505 501 162 209 9 65
3 205 101 95 20 43 128 110 167 164 286 290 327 396 532 450 383 400 317 296 12 25
1 116 165 54 97 188 38 140 130 237 233 286 316 399 568 547 341 119 83 66 3 6
1 1 3 75 169 37 89 36 264 231 234 206 353 481 531 525 347 128 4 0 9 3
0 0 0 87 330 218 131 6 12 84 196 187 281 364 409 344 245 86 13 4 30 18
0 0 0 0 0 349 350 98 11 21 17 194 304 331 422 310 231 161 177 30 19 8
0 0 3 0 0 35 201 318 221 32 45 17 93 418 472 395 428 237 148 87 49 47
0 0 18 0 0 0 0 8 63 174 85 4 4 234 361 411 394 283 221 162 140 161
0 0 1 1 0 0 0 0 0 0 0 0 0 0 0 0 21 58 29 0 0 0
0 0 0 0 0 0 0 0 0 0 0 0 0 0 0 0 0 0 0 0 0 0
0 0 0 0 0 0 0 0 0 0 0 0 0 0 0 0 0 0 0 0 0 0
0 0 0 0 0 0 0 0 0 0 0 0 0 0 0 0 0 0 0 0 0 0
0 0 0 0 0 0 0 0 0 0 0 0 0 0 0 0 0 0 0 0 0 0
0 0 0 0 0 0 0 0 0 0 0 0 0 0 0 0 0 0 0 0 0 0

GFSNIL_con_mlcape_009.txt.gz
CAPE
0 0 0 0 0 40 36 9 28 65 102 114 153 247 110 76 133 145 193 206 92 41
2 8 13 3 10 43 40 93 183 192 203 195 233 180 140 188 163 220 165 131 63 22
58 51 77 79 12 21 53 89 166 250 273 257 220 184 190 216 172 136 94 41 32 3
31 63 88 27 0 18 65 53 121 185 238 206 278 166 118 101 60 14 0 0 0 0
10 52 29 31 0 26 44 103 119 145 173 202 185 133 117 50 28 10 0 0 0 6
0 19 42 10 0 0 45 135 202 137 111 129 138 61 69 63 19 2 1 2 0 4
0 0 29 42 15 5 31 63 81 164 89 126 162 80 71 35 20 1 0 1 0 1
0 0 3 69 7 0 27 38 51 85 87 118 161 109 95 61 18 2 11 6 6 6
0 6 6 0 0 0 0 42 0 0 12 40 27 20 42 51 45 13 24 17 1 7
0 7 0 0 0 0 0 0 0 0 0 0 6 23 33 28 20 18 4 1 0 0
0 0 0 0 0 0 0 0 0 0 0 0 0 9 13 4 0 1 6 0 0 1
0 0 0 0 0 0 0 0 0 0 0 0 0 0 0 0 2 2 0 0 0 0
0 0 0 0 0 0 0 0 0 0 0 0 0 0 0 0 0 0 0 0 0 0
0 0 0 0 0 0 0 0 0 0 0 0 0 0 0 0 0 0 0 0 0 0

GFSNIL_con_mlcape_012.txt.gz
CAPE
0 0 0 0 9 0 0 0 0 4 28 9 72 94 56 5 24 0 4 9 19 31
0 0 6 2 3 0 0 3 3 0 16 89 130 48 47 53 66 23 9 14 0 0
0 22 38 10 0 7 32 72 77 60 29 31 103 114 68 67 41 40 39 19 0 0
0 34 0 0 1 32 34 85 70 98 97 125 118 105 43 19 54 39 8 1 1 1
0 0 0 0 0 11 21 73 71 120 95 102 68 57 64 45 8 1 1 2 2 3
0 0 0 0 0 2 42 68 79 79 45 75 40 25 13 5 0 0 0 1 1 1
0 0 0 0 0 1 32 57 58 56 80 77 54 22 0 0 0 0 2 1 8 8
0 0 0 0 1 10 14 43 68 87 135 102 25 48 37 6 9 0 0 2 2 4
0 0 0 0 3 1 0 0 38 28 54 62 46 11 12 14 8 10 1 3 1 0
0 0 0 0 0 0 0 0 0 0 19 30 26 20 18 12 14 23 3 7 22 36
0 0 0 0 0 0 0 0 0 0 0 7 4 22 31 30 24 12 1 1 2 16
0 0 0 0 0 0 0 0 0 0 0 0 0 0 0 15 7 2 1 0 0 1
0 0 0 0 0 0 0 0 0 0 0 0 0 0 0 0 0 0 0 0 0 0
0 0 0 0 0 0 0 0 0 0 0 0 0 0 0 0 0 0 0 0 0 0

GFSNIL_con_mlcape_015.txt.gz
CAPE
0 0 0 0 0 0 0 0 0 0 2 0 38 13 0 0 0 4 25 7 0 0
0 0 7 0 0 0 0 0 0 0 0 1 44 35 14 4 7 2 4 4 6 8
0 11 2 0 0 0 0 0 0 0 0 10 38 25 39 34 37 2 3 0 4 1
0 0 0 0 0 0 1 11 0 0 0 0 28 31 9 17 35 17 12 1 1 0
0 0 0 0 0 0 8 14 8 12 16 24 26 7 12 9 10 15 6 0 0 0
0 0 0 0 0 1 0 23 36 34 30 26 11 22 0 0 0 2 1 1 3 1
0 0 0 0 0 8 4 9 22 13 17 11 3 0 0 0 1 1 0 1 2 1
0 0 0 0 0 0 6 13 21 46 25 17 4 0 0 0 0 0 1 7 9 1
0 0 0 0 0 0 1 29 37 37 37 17 26 0 0 0 3 4 1 7 9 0
0 0 0 0 0 0 0 1 17 7 33 31 4 3 2 1 4 1 1 1 4 4
0 0 0 0 0 0 0 0 1 6 18 6 8 5 1 0 6 5 3 9 3 3
0 0 0 0 0 0 0 0 0 0 0 2 0 0 1 3 7 5 13 21 8 3
0 0 0 0 0 0 0 0 0 0 0 0 0 0 0 0 3 1 1 1 1 0
0 0 0 0 0 0 0 0 0 0 0 0 0 0 0 0 0 0 0 0 0 0

GFSNIL_con_mlcape_021.txt.gz
CAPE
0 0 0 0 42 11 57 150 162 152 142 146 156 120 93 98 105 134 155 65 14 47
0 8 18 20 14 25 24 51 205 166 147 242 129 40 104 87 51 93 79 15 0 7
10 55 1 21 64 57 51 58 132 112 167 193 175 125 111 39 88 89 58 38 64 102
60 0 2 29 85 143 113 76 60 67 129 168 22 12 51 44 16 26 33 68 66 63
4 0 0 32 37 125 135 123 63 44 74 0 0 0 8 3 2 5 6 36 18 31
0 0 0 28 89 128 126 95 59 46 14 0 0 1 2 2 2 4 4 4 13 31
0 0 1 48 115 164 168 132 117 104 44 0 1 1 1 2 3 3 2 8 92 60
0 0 3 50 75 92 104 101 120 106 64 1 2 1 1 1 3 4 1 3 2 13
0 0 4 41 51 124 88 77 79 93 89 29 0 0 0 1 1 4 3 0 1 1
0 0 18 12 24 92 98 114 107 81 70 1 0 0 0 0 1 5 3 0 2 1
0 0 0 0 0 25 75 87 48 26 11 1 0 0 0 0 6 3 6 5 3 1
0 0 0 0 0 0 9 30 8 2 2 0 0 0 0 3 4 3 10 9 9 8
0 0 0 0 0 0 0 1 31 11 7 0 1 0 0 1 2 2 3 3 3 0
0 2 0 0 0 0 0 0 0 1 2 2 0 0 0 3 13 10 2 7 3 0

GFSNIL_con_mlcape_024.txt.gz
CAPE
326 261 209 302 235 251 320 302 360 378 361 418 398 337 335 393 384 439 552 402 111 216
347 365 310 289 179 257 255 216 345 349 368 423 389 401 435 406 413 396 491 382 303 165
388 331 287 343 184 170 212 111 238 319 339 357 388 432 471 366 390 413 207 11 24 273
350 148 237 214 197 164 156 85 141 221 290 363 415 457 485 366 334 286 311 361 342 341
275 105 237 207 269 235 177 69 50 106 229 156 194 300 258 183 237 213 172 199 186 301
228 173 199 232 303 249 71 42 43 90 220 48 162 206 105 89 50 102 155 153 101 200
193 123 173 235 297 252 177 73 39 42 47 50 25 40 26 40 44 52 241 93 170 155
157 97 154 123 214 214 234 201 137 166 46 29 24 11 25 23 22 1 149 252 181 157
128 62 160 123 148 163 179 178 177 237 101 43 2 0 0 2 48 52 86 127 134 21
47 86 155 92 87 168 204 221 147 138 95 16 2 0 0 0 58 94 103 39 3 1
35 123 124 200 224 214 236 318 141 85 72 12 1 0 0 0 50 42 191 3 110 51
43 121 79 54 357 307 206 2 13 32 8 7 1 0 0 1 80 76 97 165 64 37
18 35 5 0 292 386 280 124 42 5 0 0 0 0 0 10 3 7 4 45 26 1
80 7 22 0 228 387 213 222 64 11 14 9 1 0 0 0 4 8 3 7 3 0

GFSNIL_con_mlcape_027.txt.gz
CAPE
382 476 404 532 406 251 499 550 428 390 439 456 373 407 309 293 369 444 666 689 591 550
403 449 514 476 305 267 409 325 312 406 493 388 412 366 349 409 413 402 157 361 369 398
311 300 428 423 326 131 193 111 223 403 486 380 445 432 589 701 551 508 48 100 200 180
334 231 351 480 367 182 57 85 81 275 368 380 472 516 645 432 114 315 81 16 13 464
247 218 427 334 302 112 49 15 18 116 246 194 221 405 346 310 391 307 296 308 197 329
263 366 261 223 294 98 14 11 11 77 123 56 193 186 215 154 162 105 199 214 221 229
309 195 173 214 347 204 23 23 43 71 80 168 61 40 43 73 104 131 349 132 277 188
315 111 101 110 240 123 57 24 49 191 203 39 19 15 43 88 131 273 230 238 161 126
87 138 100 128 223 204 123 52 60 142 221 44 16 0 0 6 30 243 188 191 69 72
105 162 140 64 89 224 184 245 101 175 116 103 2 0 0 0 50 241 147 155 94 51
114 187 164 120 140 238 238 246 390 196 175 59 0 0 0 0 213 156 144 143 97 61
173 211 150 213 322 459 171 58 84 94 73 42 0 0 0 0 135 110 158 68 44 46
216 158 148 372 448 593 375 98 37 52 11 2 2 0 0 0 103 89 42 37 0 0
307 220 128 458 329 503 294 193 46 29 12 11 1 0 0 0 78 93 100 1 4 0

GFSNIL_con_mlcape_030.txt.gz
CAPE
532 554 605 696 506 375 509 472 104 105 289 456 400 202 132 131 105 144 280 96 127 284
521 654 460 596 467 413 427 135 159 194 369 411 343 216 189 106 208 169 33 129 165 139
291 319 405 498 211 182 231 149 187 421 472 358 300 333 233 203 411 51 4 65 256 241
264 250 246 347 268 100 63 66 101 251 441 329 371 268 76 130 40 14 28 4 3 85
199 248 184 251 318 5 6 24 24 150 157 152 320 393 306 208 223 251 44 27 52 11
309 176 337 213 173 29 14 12 31 28 43 84 274 106 142 226 147 68 78 68 71 53
297 161 128 241 239 93 9 12 44 57 83 103 35 18 56 73 88 161 132 87 186 46
213 110 116 241 170 201 9 11 66 113 86 9 1 11 64 29 169 119 151 129 103 2
274 68 90 151 145 0 14 20 72 98 0 2 0 0 0 12 124 82 125 96 16 0
297 145 101 179 181 89 29 18 52 90 28 0 0 0 0 0 134 100 64 40 42 14
282 176 169 28 237 154 43 31 32 73 27 0 0 0 0 0 83 56 46 37 29 3
277 248 178 217 269 242 167 100 76 100 32 0 0 0 0 48 89 39 51 41 8 3
327 217 434 267 329 357 96 44 35 29 19 0 0 0 0 0 64 3 2 4 0 0
292 356 503 344 253 313 220 9 6 14 7 11 1 0 0 0 29 14 0 0 0 0

GFSNIL_con_mlcape_033.txt.gz
CAPE
258 119 409 346 325 383 195 256 141 34 50 134 240 193 24 27 24 92 54 105 87 90
300 440 264 216 263 188 288 0 5 13 106 239 188 61 27 32 95 113 23 84 58 60
317 288 337 194 40 148 102 114 10 195 287 199 140 107 103 54 44 26 10 36 37 43
170 167 168 133 95 82 64 43 134 236 222 113 157 157 14 44 48 12 15 11 16 46
197 202 51 87 52 0 13 1 1 90 138 117 100 44 23 1 8 40 10 4 21 14
93 80 81 127 3 0 2 10 34 89 51 40 37 28 72 63 51 22 24 21 20 24
91 66 84 67 10 9 16 10 26 76 67 16 0 0 0 6 57 93 29 19 31 22
77 42 47 41 60 145 17 23 76 15 0 0 0 1 0 4 48 71 44 19 0 2
26 43 97 108 48 29 10 37 34 0 0 0 0 0 0 3 42 65 18 3 0 0
29 19 33 65 0 6 21 28 11 0 0 0 0 0 0 0 41 30 0 0 0 2
244 97 107 110 8 14 0 3 29 6 0 0 0 0 0 0 0 0 4 0 0 0
215 170 51 92 40 20 15 2 41 0 0 0 0 0 0 0 0 0 1 0 0 0
178 125 145 51 7 24 15 9 22 6 0 0 0 0 0 0 0 0 0 0 0 0
220 367 257 102 125 3 0 4 4 4 0 0 0 0 0 1 2 0 0 0 0 0

GFSNIL_con_mlcape_036.txt.gz
CAPE
120 168 189 167 163 198 130 17 118 79 0 0 9 30 15 14 0 44 37 18 22 38
87 148 175 151 132 69 54 65 0 0 0 7 64 55 6 18 25 41 28 4 4 20
146 190 136 92 21 28 1 0 0 0 24 87 66 30 26 38 35 18 2 15 19 7
168 130 81 7 11 0 0 0 0 85 97 26 22 65 39 23 19 0 0 8 23 19
81 103 13 14 0 0 0 0 8 120 77 69 23 0 0 1 1 1 0 0 11 9
84 51 4 1 0 0 0 1 8 80 120 30 0 12 37 24 33 25 4 13 10 53
24 8 0 0 0 0 5 16 26 50 25 0 0 0 0 0 26 23 12 8 15 21
6 6 0 0 0 3 27 20 34 13 0 0 0 0 0 15 39 22 2 10 7 16
17 3 0 0 0 23 19 23 22 3 0 0 0 0 0 7 59 9 8 3 0 2
6 7 1 0 0 11 15 23 1 0 0 0 0 0 0 3 29 0 0 0 2 1
0 0 0 0 0 3 26 14 0 0 0 0 0 0 0 5 7 0 0 0 1 0
30 12 4 1 0 0 3 4 0 0 0 0 0 0 0 0 0 0 0 1 2 0
51 44 23 0 0 0 0 15 3 0 0 0 0 0 0 0 0 0 0 0 0 0
69 35 33 0 0 0 0 1 0 0 0 0 0 0 0 0 0 0 0 0 0 0

GFSNIL_con_mlcape_042.txt.gz
CAPE
227 150 30 7 1 32 80 99 22 33 13 0 0 0 0 0 0 0 0 0 3 16
44 32 35 26 57 49 22 17 7 0 0 0 0 0 0 0 0 0 15 19 24 23
15 20 23 29 29 14 3 0 0 0 0 0 0 0 0 0 0 0 8 16 20 6
18 22 18 14 4 0 0 0 0 0 0 0 0 0 0 0 1 14 21 9 22 23
2 4 0 0 0 0 0 0 0 0 2 0 0 0 0 10 6 10 1 0 5 9
0 0 0 0 0 0 0 0 0 2 0 0 0 0 0 0 3 8 1 0 0 2
0 18 0 0 0 0 0 0 0 0 8 0 0 0 0 4 6 4 2 3 19 19
11 3 0 0 0 0 0 0 0 2 0 0 0 0 0 0 18 4 0 5 17 7
14 0 0 0 0 0 0 7 7 0 0 0 0 0 0 0 27 13 6 0 16 1
20 1 0 0 0 0 12 14 4 0 0 0 0 0 0 0 0 0 1 0 1 6
21 1 0 0 0 3 17 11 0 0 0 0 0 0 0 0 0 0 1 3 1 0
5 0 0 0 0 0 2 1 0 0 0 0 0 0 0 0 0 1 1 1 1 0
0 0 0 0 0 0 0 0 0 0 0 0 0 0 0 0 2 2 0 0 0 0
10 2 0 0 0 0 0 0 0 0 0 0 0 0 0 1 1 0 0 0 0 0

GFSNIL_con_mlcape_045.txt.gz
CAPE
613 663 676 568 484 460 422 416 522 558 545 384 253 117 101 87 48 48 55 66 100 129
446 449 399 316 317 329 408 442 468 486 457 298 172 91 93 63 56 119 90 14 170 160
278 174 150 179 239 315 347 323 358 318 292 241 119 182 277 136 195 174 95 4 112 194
140 166 211 245 219 256 223 188 159 111 62 99 198 375 348 258 189 116 50 15 93 126
122 130 148 160 157 79 4 5 2 26 87 184 300 343 301 235 139 62 13 3 4 17
77 76 96 99 40 0 2 12 40 182 229 176 258 186 209 117 80 45 16 1 3 0
36 72 88 100 7 24 28 62 234 260 270 225 121 130 198 180 56 18 5 4 1 4
76 88 84 64 14 46 33 71 162 212 208 80 12 0 12 62 17 8 0 16 22 30
71 83 111 49 5 0 3 41 121 68 9 0 0 0 0 0 171 49 4 1 27 1
86 93 80 27 0 10 30 53 54 16 0 0 0 0 0 0 63 28 6 3 7 1
88 81 68 0 0 22 22 38 34 12 0 0 0 0 0 0 14 7 26 1 3 3
96 96 49 1 12 7 35 34 18 1 0 3 0 0 0 1 3 3 4 3 0 1
78 112 103 53 6 11 18 31 6 0 1 0 0 0 0 1 0 2 0 1 0 0
121 169 122 29 30 31 46 39 12 0 3 1 1 0 0 0 4 2 1 0 0 0

GFSNIL_con_mlcape_048.txt.gz
CAPE
2014 2043 2055 1829 1750 1533 1398 1387 1618 1279 1244 1161 985 913 823 435 250 254 357 383 286 196
1698 1638 1489 1406 1280 1004 731 972 1330 1272 1116 961 859 784 525 161 299 266 300 294 343 203
1398 1332 1344 1171 696 741 911 827 1094 1078 905 823 579 418 294 135 190 237 340 277 228 281
1010 808 730 769 863 960 948 899 768 684 550 402 339 237 239 230 275 326 346 120 9 248
700 734 828 782 768 773 626 458 345 213 169 176 102 303 430 332 116 224 288 12 19 65
679 691 684 611 477 312 216 140 80 91 103 130 208 329 363 288 221 239 127 12 1 5
487 388 284 299 197 163 159 90 117 167 212 300 321 261 231 220 202 52 38 18 0 0
84 177 295 246 219 223 89 100 162 266 297 345 288 107 190 157 171 133 0 19 17 3
174 272 351 313 267 103 92 197 207 244 288 303 1 0 0 0 294 67 3 7 12 28
250 307 302 245 153 63 131 251 241 242 269 83 18 0 0 0 301 163 12 1 8 2
221 203 186 184 150 102 157 131 168 290 166 121 0 0 0 0 156 94 53 1 5 1
144 195 124 137 117 144 81 189 309 198 123 179 0 0 0 0 106 109 47 2 1 4
107 181 114 139 166 104 129 228 158 104 51 0 0 0 0 2 11 57 4 1 0 0
146 243 265 255 173 147 39 156 134 88 2 3 5 0 0 0 50 21 1 3 0 0